[[{"header":{"parameterUnit":"m.s-1","parameterCategory":1,"la1":30.2992,"la2":30.254,"lo1":-89.0895,"lo2":-89.0443,"dy":0.0025,"dx":0.0025,"nx":19,"ny":19,"refTime":"2026-03-22T09:00:00:Z","depth":0,"parameterNumber":2,"parameterNumberName":"U-component_of_WINDS"},"data":[0,0,0,4.6477,4.6482,4.6731,4.6732,4.7059,4.7062,0,0,0,0,0,0,0,0,0,0,0,4.6405,4.6408,4.6476,4.6483,4.6731,4.6732,4.7058,4.7062,0,0,0,0,0,0,0,0,0,0,0,4.6404,4.6407,4.641,4.6484,4.6731,4.6732,4.7058,4.6868,0,0,0,0,0,0,0,0,0,0,4.6625,4.656,4.6406,4.641,4.6485,4.6731,4.6732,4.6859,4.688,4.6949,0,4.7008,0,4.704,4.7084,4.7085,0,0,0,4.6482,4.6543,4.6607,4.641,4.6487,4.673,4.6619,4.687,4.6894,4.6977,4.7013,4.7025,4.7045,4.7086,4.7088,4.7481,4.7483,0,0,4.6469,4.6452,4.6591,4.6623,4.6581,4.6611,4.6627,4.6885,4.6924,4.7014,4.7032,4.7051,4.7088,4.7091,4.7479,4.7481,0,0,0,4.6429,4.6443,4.6501,4.661,4.6653,4.6618,4.6636,4.6912,4.6933,4.7036,4.7055,4.709,4.7094,4.7477,4.748,4.7554,0,0,0,4.6421,4.642,4.6495,4.6487,4.6649,4.6785,4.6658,4.6915,4.6944,4.7053,4.709,4.7097,4.7475,4.7479,4.7548,4.7593,0,0,0,4.6389,4.6416,4.6452,4.6486,4.6592,4.6782,4.6817,4.6921,4.6956,4.7085,4.7098,4.7474,4.7478,4.7542,4.7583,4.7691,0,0,0,4.635,4.6517,4.6453,4.6647,4.659,4.6824,4.6815,4.6992,4.7112,4.7092,4.7475,4.748,4.754,4.7578,4.7685,4.7778,4.7815,0,0,4.6551,4.654,4.6656,4.6606,4.6847,4.6788,4.7042,4.7169,4.7199,4.7386,4.7396,4.755,4.7583,4.769,4.8029,4.8058,0,0,0,4.6714,4.6797,4.6864,4.6976,4.7074,4.7164,4.7253,4.73,4.7459,4.729,4.7618,4.7639,4.7702,4.7747,4.7772,4.7828,4.75,4.7499,4.7499,4.6977,4.7002,4.7195,4.725,4.7359,4.7448,4.7539,4.7619,4.7615,4.7692,4.7748,4.7951,4.8003,4.8022,4.808,4.78,4.78,4.78,4.7801,4.7274,4.7395,4.7384,4.7566,4.7594,4.7749,4.7842,4.7834,4.7984,4.7911,4.7969,4.7886,4.8054,4.8106,4.7807,4.7805,4.7805,4.7804,4.7804,4.7449,4.7511,4.7564,4.7726,4.785,4.7902,4.8045,4.8066,4.8087,4.8143,4.8205,4.8203,4.8205,4.8171,4.8172,4.8172,4.8173,4.8173,4.8174,4.761,4.7666,4.7783,4.79,4.7974,4.8074,4.8166,4.824,4.8329,4.8333,4.8333,4.8322,4.8064,4.7999,4.8185,4.8183,4.8181,4.818,4.818,4.7902,4.7839,4.8019,4.8092,4.8232,4.8354,4.8377,4.8527,4.8592,4.8663,4.864,4.8446,4.8437,4.8418,4.8364,4.8633,4.8633,4.8633,4.8633,4.805,4.8046,4.8234,4.835,4.8467,4.8506,4.8712,4.8785,4.8852,4.8894,4.8858,4.8789,4.8767,4.8772,4.8744,4.8695,4.9042,4.9042,4.9043,4.8231,4.8239,4.8409,4.8469,4.858,4.8676,4.887,4.9007,4.907,4.906,4.8928,4.8911,4.8798,4.876,4.8748,4.8705,4.8614,0,0]},{"header":{"parameterUnit":"m.s-1","parameterCategory":1,"la1":30.2992,"la2":30.254,"lo1":-89.0895,"lo2":-89.0443,"dy":0.0025,"dx":0.0025,"nx":19,"ny":19,"refTime":"2026-03-22T09:00:00:Z","depth":0,"parameterNumber":3,"parameterNumberName":"V-component_of_WINDS"},"data":[0,0,0,1.689,1.6891,1.6908,1.6908,1.6945,1.6945,0,0,0,0,0,0,0,0,0,0,0,1.6894,1.6894,1.689,1.6891,1.6908,1.6908,1.6945,1.6945,0,0,0,0,0,0,0,0,0,0,0,1.6894,1.6894,1.6895,1.6891,1.6908,1.6908,1.6945,1.6926,0,0,0,0,0,0,0,0,0,0,1.6907,1.6919,1.6894,1.6895,1.6891,1.6908,1.6908,1.6925,1.6928,1.6944,0,1.696,0,1.6953,1.6949,1.6949,0,0,0,1.6884,1.6917,1.6914,1.6895,1.6891,1.6908,1.6898,1.6926,1.6929,1.6947,1.696,1.6961,1.6954,1.6949,1.6949,1.7065,1.7066,0,0,1.6883,1.6902,1.6912,1.6916,1.6914,1.6898,1.6899,1.6928,1.6944,1.696,1.6962,1.6955,1.695,1.695,1.7064,1.7065,0,0,0,1.6885,1.6901,1.6897,1.6915,1.6917,1.6898,1.69,1.6943,1.694,1.6962,1.6955,1.695,1.695,1.7063,1.7064,1.7126,0,0,0,1.6884,1.6902,1.6897,1.6908,1.6917,1.693,1.6914,1.6938,1.694,1.6955,1.695,1.6951,1.7062,1.7064,1.7122,1.7152,0,0,0,1.689,1.6903,1.6908,1.6909,1.6918,1.6929,1.6928,1.6938,1.6936,1.6949,1.6951,1.7061,1.7063,1.7119,1.7146,1.7189,0,0,0,1.6901,1.6962,1.691,1.6975,1.6918,1.6967,1.6927,1.6963,1.6981,1.695,1.7062,1.7064,1.7118,1.7143,1.7185,1.7229,1.7248,0,0,1.6988,1.6973,1.701,1.6964,1.7027,1.6963,1.7035,1.7034,1.7017,1.705,1.7052,1.7123,1.7146,1.7188,1.735,1.7365,0,0,0,1.7044,1.7071,1.7084,1.7102,1.7103,1.7106,1.7092,1.7091,1.7118,1.7038,1.7149,1.7162,1.7186,1.7206,1.7219,1.7239,1.7074,1.7074,1.7073,1.7195,1.7171,1.7231,1.721,1.7229,1.7214,1.7227,1.7224,1.7194,1.7221,1.7231,1.7331,1.7355,1.7365,1.7386,1.725,1.7251,1.7251,1.7251,1.7321,1.7356,1.7316,1.736,1.7335,1.7372,1.736,1.7338,1.7368,1.7322,1.7341,1.7294,1.7383,1.7401,1.7255,1.7255,1.7254,1.7254,1.7253,1.7418,1.7431,1.743,1.7455,1.7477,1.7454,1.7486,1.7461,1.7438,1.7458,1.7467,1.7466,1.7462,1.7464,1.7464,1.7464,1.7465,1.7465,1.7465,1.752,1.7517,1.7547,1.7553,1.7563,1.7572,1.7558,1.7567,1.757,1.755,1.755,1.7519,1.7396,1.7367,1.747,1.7469,1.7469,1.7468,1.7468,1.7659,1.7624,1.767,1.768,1.7687,1.7711,1.7679,1.7699,1.7703,1.772,1.7684,1.7597,1.7579,1.7569,1.7544,1.7688,1.7688,1.7688,1.7688,1.7742,1.773,1.7773,1.7791,1.7804,1.7781,1.7835,1.7826,1.781,1.7811,1.7786,1.7751,1.7741,1.773,1.7715,1.7692,1.787,1.7871,1.7871,1.7826,1.7816,1.7867,1.7851,1.7855,1.7859,1.7909,1.7931,1.7906,1.7878,1.7811,1.7804,1.7747,1.7729,1.7701,1.7679,1.7636,0,0]}]]